Stations météo

réclame
Mon MeteoGroup
Sevilla/San Pablo, Espagne (8391): Température de l'air & dewpoint: 15.01.2019 17:00:00 - 21.01.2019 17:00:00 (CET)Sevilla/San Pablo, Espagne (8391): Vitesse du vent: 15.01.2019 17:00:00 - 21.01.2019 17:00:00 (CET)Sevilla/San Pablo, Espagne (8391): Direction du vent: 15.01.2019 17:00:00 - 21.01.2019 17:00:00 (CET)Sevilla/San Pablo, Espagne (8391): reduced air pressure: 15.01.2019 17:00:00 - 21.01.2019 17:00:00 (CET)Sevilla/San Pablo, Espagne (8391): visibility: 15.01.2019 17:00:00 - 21.01.2019 17:00:00 (CET)
Date & Time tt [°C] td [°C] ff [km/h] ff [knt] dd ppp [hPa] vv [km]
21.01.2019 17:00:00 17,0 2,4 2 1 SE 1020,9 -
21.01.2019 16:00:00 16,1 1,9 5 3 ENE 1021,1 30
21.01.2019 15:00:00 15,3 3,4 5 3 E 1021,3 -
21.01.2019 14:00:00 14,6 4,5 8 4 ENE 1021,8 -
21.01.2019 13:00:00 13,0 5,2 4 2 WNW 1022,6 30
21.01.2019 12:00:00 11,8 5,8 9 5 NE 1023,1 -
21.01.2019 11:00:00 9,3 5,9 8 4 NE 1022,9 -
21.01.2019 10:00:00 6,9 4,4 2 1 NW 1022,3 30
21.01.2019 09:00:00 3,5 2,5 5 3 NNW 1021,9 -
21.01.2019 08:00:00 2,6 1,7 0 0 N 1021,3 -
21.01.2019 07:00:00 2,4 1,5 4 2 SE 1021,0 30
21.01.2019 06:00:00 3,3 2,3 0 0 N 1020,7 -
21.01.2019 05:00:00 3,2 2,0 5 3 SSE 1020,5 -
21.01.2019 04:00:00 3,6 2,4 0 0 N 1020,5 30
21.01.2019 03:00:00 4,1 2,6 5 3 SE 1020,4 -
21.01.2019 02:00:00 5,7 3,7 5 3 N 1020,4 -
21.01.2019 01:00:00 6,6 3,9 0 0 N 1020,6 30
21.01.2019 00:00:00 7,0 4,1 4 2 NNW 1020,1 -
20.01.2019 23:00:00 6,9 4,2 0 0 N 1019,6 -
20.01.2019 22:00:00 8,6 4,8 5 3 WNW 1019,2 30
20.01.2019 21:00:00 10,2 5,4 5 3 NNW 1018,9 -
20.01.2019 20:00:00 10,8 5,5 11 6 NW 1018,2 -
20.01.2019 19:00:00 12,8 5,9 18 10 NNW 1017,3 30
20.01.2019 18:00:00 14,9 5,9 22 12 NNW 1016,6 -
20.01.2019 17:00:00 16,5 6,2 16 9 NNW 1015,9 -
20.01.2019 16:00:00 15,7 6,4 16 9 N 1015,6 30
20.01.2019 15:00:00 15,7 6,7 21 11 N 1015,2 -
20.01.2019 14:00:00 15,6 7,3 16 9 N 1015,3 -
20.01.2019 13:00:00 14,8 7,5 18 10 N 1015,4 30
20.01.2019 12:00:00 14,5 8,0 16 9 NNW 1015,5 -
20.01.2019 11:00:00 14,0 8,6 18 10 WNW 1014,6 -
20.01.2019 10:00:00 11,9 9,2 16 9 W 1013,9 30
20.01.2019 09:00:00 11,6 8,5 21 11 WNW 1013,0 -
20.01.2019 08:00:00 11,8 9,5 26 14 W 1012,1 -
20.01.2019 07:00:00 11,6 10,8 13 7 WSW 1011,7 30
20.01.2019 06:00:00 11,8 10,9 16 9 WSW 1011,9 -
20.01.2019 05:00:00 11,9 11,1 16 9 WSW 1012,0 -
20.01.2019 04:00:00 12,1 11,4 16 9 SW 1012,6 30
20.01.2019 03:00:00 12,3 11,4 15 8 SW 1012,7 -
20.01.2019 02:00:00 12,1 11,5 8 4 WSW 1012,9 -
20.01.2019 01:00:00 12,4 11,6 13 7 W 1013,1 30
20.01.2019 00:00:00 13,1 12,5 22 12 WSW 1013,0 -
19.01.2019 23:00:00 12,8 12,0 28 15 SW 1013,0 -
19.01.2019 22:00:00 12,7 12,2 11 6 SSW 1013,8 6
19.01.2019 21:00:00 12,2 11,4 13 7 SSW 1015,1 -
19.01.2019 20:00:00 11,6 10,3 13 7 S 1015,5 -
19.01.2019 19:00:00 11,2 10,3 9 5 S 1016,3 20
19.01.2019 18:00:00 11,1 10,0 9 5 SSW 1016,8 -
19.01.2019 17:00:00 11,1 9,8 9 5 SSW 1017,4 -
19.01.2019 16:00:00 11,4 9,3 9 5 SW 1017,8 15
19.01.2019 15:00:00 10,9 8,9 9 5 SW 1018,6 -
19.01.2019 14:00:00 11,0 8,7 9 5 SW 1019,6 -
19.01.2019 13:00:00 10,6 8,5 5 3 W 1020,3 15
19.01.2019 12:00:00 10,3 8,4 0 0 N 1020,5 -
19.01.2019 11:00:00 9,5 8,6 8 4 W 1020,6 -
19.01.2019 10:00:00 8,9 8,4 8 4 E 1019,5 5
19.01.2019 09:00:00 8,2 7,9 9 5 NNE 1019,5 -
19.01.2019 08:00:00 8,3 8,0 11 6 NNE 1018,8 -
19.01.2019 07:00:00 8,3 8,0 9 5 ENE 1018,6 2,5
19.01.2019 06:00:00 8,4 8,1 8 4 NE 1019,1 -
19.01.2019 05:00:00 8,4 7,9 5 3 E 1019,2 -
19.01.2019 04:00:00 8,6 7,7 0 0 N 1019,8 2,0
19.01.2019 03:00:00 8,9 7,7 5 3 W 1020,1 -
19.01.2019 02:00:00 9,4 7,2 11 6 W 1020,1 -
19.01.2019 01:00:00 10,1 6,1 11 6 W 1020,5 15
19.01.2019 00:00:00 10,7 5,2 0 0 N 1020,7 -
18.01.2019 23:00:00 11,1 4,5 15 8 W 1020,7 -
18.01.2019 22:00:00 11,8 3,1 13 7 WNW 1020,3 30
18.01.2019 21:00:00 11,8 2,8 9 5 W 1019,9 -
18.01.2019 20:00:00 13,2 4,8 11 6 WSW 1019,5 -
18.01.2019 19:00:00 13,3 5,7 9 5 SSW 1019,3 30
18.01.2019 18:00:00 14,5 5,4 11 6 SW 1019,3 -
18.01.2019 17:00:00 15,0 3,0 8 4 SW 1019,4 -
18.01.2019 16:00:00 15,7 3,4 11 6 W 1019,9 30
18.01.2019 15:00:00 15,4 3,6 5 3 W 1020,2 -
18.01.2019 14:00:00 14,1 3,6 4 2 NNE 1020,9 -
18.01.2019 13:00:00 13,0 4,0 4 2 NE 1021,6 25
18.01.2019 12:00:00 11,6 4,5 8 4 NE 1022,4 -
18.01.2019 11:00:00 8,6 5,0 9 5 NNE 1022,1 -
18.01.2019 10:00:00 5,6 4,6 0 0 N 1021,6 12
18.01.2019 09:00:00 2,3 1,4 4 2 E 1021,3 -
18.01.2019 08:00:00 3,3 2,6 0 0 N 1020,6 -
18.01.2019 07:00:00 3,0 2,3 0 0 N 1020,1 15
18.01.2019 06:00:00 3,1 2,1 2 1 SSE 1019,6 -
18.01.2019 05:00:00 3,9 2,6 0 0 N 1019,9 -
18.01.2019 04:00:00 4,3 3,0 0 0 N 1020,2 30
18.01.2019 03:00:00 4,4 3,1 8 4 WNW 1020,1 -
18.01.2019 02:00:00 6,6 3,9 0 0 N 1020,2 -
18.01.2019 01:00:00 7,5 4,4 9 5 NE 1020,3 30
18.01.2019 00:00:00 7,3 5,3 9 5 NNE 1020,5 -
17.01.2019 23:00:00 8,5 6,3 8 4 NE 1019,9 -
17.01.2019 22:00:00 11,3 7,4 9 5 NNE 1019,3 20
17.01.2019 21:00:00 11,8 7,3 0 0 N 1019,0 -
17.01.2019 20:00:00 12,0 6,9 0 0 N 1018,6 -
17.01.2019 19:00:00 11,8 7,1 4 2 E 1018,2 20
17.01.2019 18:00:00 13,7 6,5 8 4 W 1017,5 -
17.01.2019 17:00:00 15,1 6,9 9 5 W 1017,4 -
17.01.2019 16:00:00 14,1 7,4 0 0 N 1017,3 20
17.01.2019 15:00:00 14,6 6,9 9 5 NNE 1017,8 -
17.01.2019 14:00:00 14,6 6,3 4 2 NE 1018,4 -
17.01.2019 13:00:00 12,7 6,1 9 5 NNE 1019,4 20
17.01.2019 12:00:00 12,0 6,4 4 2 N 1020,2 -
17.01.2019 11:00:00 10,6 6,3 4 2 ENE 1019,9 -
17.01.2019 10:00:00 8,7 5,8 8 4 ENE 1019,3 20
17.01.2019 09:00:00 6,8 5,4 8 4 ENE 1019,0 -
17.01.2019 08:00:00 5,3 3,9 8 4 NE 1018,5 -
17.01.2019 07:00:00 5,2 3,4 0 0 N 1018,1 25
17.01.2019 06:00:00 6,6 4,8 4 2 NE 1017,8 -
17.01.2019 05:00:00 6,6 4,6 8 4 NE 1018,3 -
17.01.2019 04:00:00 6,7 5,2 9 5 NNE 1018,5 20
17.01.2019 03:00:00 7,6 5,9 9 5 NE 1018,4 -
17.01.2019 02:00:00 9,0 6,6 8 4 N 1018,7 -
17.01.2019 01:00:00 10,6 7,3 0 0 N 1019,1 30
17.01.2019 00:00:00 11,2 7,5 8 4 ENE 1019,2 -
16.01.2019 23:00:00 11,4 7,5 11 6 ENE 1019,4 -
16.01.2019 22:00:00 11,1 7,6 4 2 ENE 1019,0 30
16.01.2019 21:00:00 11,4 7,1 4 2 ESE 1018,9 -
16.01.2019 20:00:00 12,9 6,7 5 3 SW 1018,7 -
16.01.2019 19:00:00 12,7 7,4 0 0 N 1018,4 30
16.01.2019 18:00:00 15,3 6,8 2 1 SSW 1018,2 -
16.01.2019 17:00:00 16,6 7,2 4 2 ESE 1018,2 -
16.01.2019 16:00:00 16,1 7,6 5 3 NNW 1018,4 30
16.01.2019 15:00:00 16,2 7,6 5 3 W 1019,0 -
16.01.2019 14:00:00 15,3 8,3 4 2 WNW 1019,7 -
16.01.2019 13:00:00 13,8 8,3 4 2 N 1020,7 30
16.01.2019 12:00:00 11,9 7,6 4 2 NNE 1021,7 -
16.01.2019 11:00:00 9,1 6,7 9 5 NNE 1021,6 -
16.01.2019 10:00:00 6,2 5,2 5 3 NNE 1021,4 8
16.01.2019 09:00:00 5,1 4,4 9 5 NE 1020,9 -
16.01.2019 08:00:00 4,6 3,9 9 5 NNW 1020,9 -
16.01.2019 07:00:00 3,5 2,8 4 2 NNE 1020,7 5
16.01.2019 06:00:00 3,6 2,9 2 1 NE 1020,9 -
16.01.2019 05:00:00 3,2 2,3 5 3 N 1021,1 -
16.01.2019 04:00:00 4,3 3,6 4 2 NNW 1021,6 4,0
16.01.2019 03:00:00 4,0 3,1 5 3 NNE 1021,7 -
16.01.2019 02:00:00 4,7 3,8 4 2 N 1021,7 -
16.01.2019 01:00:00 4,9 3,7 2 1 NNE 1022,0 5
16.01.2019 00:00:00 5,5 4,2 2 1 N 1022,2 -
15.01.2019 23:00:00 6,1 4,7 0 0 N 1022,0 -
15.01.2019 22:00:00 6,6 5,1 4 2 SE 1021,7 -
15.01.2019 21:00:00 7,3 5,6 9 5 ESE 1021,4 -
15.01.2019 20:00:00 8,3 6,0 5 3 ESE 1021,1 -
15.01.2019 19:00:00 9,7 6,4 5 3 E 1020,9 9
15.01.2019 18:00:00 11,0 6,9 8 4 NNE 1020,4 -
15.01.2019 17:00:00 12,3 7,2 9 5 NNE 1020,5 -

tt = Température de l'air
td = dewpoint
ff = Vitesse du vent
dd = Direction du vent
ppp = reduced air pressure
vv = visibility

stations d'obs. à proximité